TimeCST,TemperatureF,Dew PointF,Humidity,Sea Level PressureIn,VisibilityMPH,Wind Direction,Wind SpeedMPH,Gust SpeedMPH,PrecipitationIn,Events,Conditions,WindDirDegrees,DateUTC
12:52 AM,37.0,27.0,67,30.30,10.0,North,10.4,-,N/A,,Clear,10,2013-01-20 06:52:00
1:52 AM,35.1,23.0,61,30.32,10.0,NW,5.8,-,N/A,,Clear,310,2013-01-20 07:52:00
2:52 AM,28.9,19.0,67,30.32,10.0,North,4.6,-,N/A,,Clear,360,2013-01-20 08:52:00
3:52 AM,27.0,15.1,61,30.33,10.0,NW,4.6,-,N/A,,Clear,310,2013-01-20 09:52:00
4:52 AM,23.0,14.0,68,30.34,10.0,Variable,3.5,-,N/A,,Clear,0,2013-01-20 10:52:00
5:52 AM,23.0,14.0,68,30.33,10.0,NNE,9.2,-,N/A,,Clear,30,2013-01-20 11:52:00
6:52 AM,24.1,12.0,60,30.34,10.0,NNE,8.1,-,N/A,,Clear,30,2013-01-20 12:52:00
7:52 AM,23.0,10.0,58,30.34,10.0,ENE,5.8,-,N/A,,Clear,60,2013-01-20 13:52:00
8:52 AM,25.0,10.0,53,30.35,10.0,NE,8.1,-,N/A,,Clear,40,2013-01-20 14:52:00
9:52 AM,28.0,10.9,49,30.38,10.0,NE,8.1,-,N/A,,Clear,50,2013-01-20 15:52:00
10:52 AM,30.0,10.9,45,30.37,10.0,ENE,5.8,-,N/A,,Clear,70,2013-01-20 16:52:00
11:52 AM,32.0,10.0,40,30.35,10.0,Variable,3.5,-,N/A,,Clear,0,2013-01-20 17:52:00
12:52 PM,35.1,10.0,35,30.32,10.0,ENE,4.6,-,N/A,,Clear,70,2013-01-20 18:52:00
1:52 PM,33.1,10.0,38,30.33,10.0,North,11.5,-,N/A,,Clear,10,2013-01-20 19:52:00
2:52 PM,33.1,8.1,35,30.34,10.0,North,8.1,-,N/A,,Clear,10,2013-01-20 20:52:00
3:52 PM,34.0,10.0,37,30.34,10.0,NNE,5.8,-,N/A,,Clear,20,2013-01-20 21:52:00
4:52 PM,30.9,8.1,38,30.35,10.0,NNE,10.4,-,N/A,,Clear,20,2013-01-20 22:52:00
5:52 PM,28.9,8.1,41,30.38,10.0,North,11.5,-,N/A,,Clear,10,2013-01-20 23:52:00
6:52 PM,26.1,8.1,47,30.39,10.0,North,6.9,-,N/A,,Clear,10,2013-01-21 00:52:00
7:52 PM,24.1,10.0,55,30.42,10.0,North,8.1,-,N/A,,Scattered Clouds,350,2013-01-21 01:52:00
8:52 PM,23.0,10.0,58,30.43,10.0,NNW,6.9,-,N/A,,Clear,330,2013-01-21 02:52:00
9:52 PM,19.9,9.0,62,30.43,10.0,NNW,6.9,-,N/A,,Clear,330,2013-01-21 03:52:00
10:52 PM,19.0,9.0,65,30.46,10.0,NNW,8.1,-,N/A,,Clear,330,2013-01-21 04:52:00
11:52 PM,16.0,8.1,71,30.46,10.0,NNW,4.6,-,N/A,,Clear,340,2013-01-21 05:52:00